period_start,C,m1,H,J0,J1,J2,J3,J4,J5,JA,JB,JC,JD,JJ,JK,JN,#
2016-01-30 00:04:34,0.20,0.23,0.00,12.58,17.10,20.89,15.08,50.10,1012.24,2075.02,3478.12,3134.72,3557.18,599.97,615.11,1.22,0000 0000 0000 0000 000000
2016-01-30 00:09:36,0.19,0.24,0.00,12.58,17.09,20.90,15.18,50.31,1012.23,2075.05,3474.09,3131.55,3553.59,600.06,615.18,1.27,0000 0000 0000 0000 000000
2016-01-30 00:14:37,0.23,0.25,0.00,12.54,17.09,20.90,15.09,50.16,1012.22,2075.06,3469.74,3127.93,3549.51,599.89,615.05,1.33,0000 0000 0000 0000 000000
2016-01-30 00:19:39,0.21,0.26,0.00,12.53,17.08,20.91,15.18,50.27,1012.22,2075.08,3465.33,3124.40,3545.36,600.16,615.40,1.38,0000 0000 0000 0000 000000
2016-01-30 00:24:40,0.20,0.27,0.00,12.50,17.07,20.86,15.10,50.39,1012.17,2075.09,3461.15,3121.35,3541.94,599.93,615.25,1.43,0000 0000 0000 0000 000000
2016-01-30 00:29:42,0.20,0.28,0.00,12.47,17.07,20.88,15.03,50.27,1012.20,2075.12,3457.16,3118.05,3538.22,599.81,615.12,1.48,0000 0000 0000 0000 000000
2016-01-30 00:34:43,0.19,0.29,0.00,12.42,17.06,20.83,15.20,50.31,1012.22,2075.10,3453.13,3114.70,3534.54,600.38,615.87,1.53,0000 0000 0000 0000 000000
2016-01-30 00:39:44,0.21,0.30,0.00,12.42,17.04,20.89,15.03,50.08,1012.22,2075.15,3449.02,3111.41,3530.85,599.81,615.28,1.58,0000 0000 0000 0000 000000
2016-01-30 00:44:46,0.21,0.31,0.00,12.42,17.03,20.85,15.24,50.37,1012.20,2075.31,3444.94,3108.26,3527.24,600.17,615.64,1.63,0000 0000 0000 0000 000000
2016-01-30 00:49:47,0.23,0.33,0.00,12.39,17.02,20.82,15.12,50.25,1012.19,2075.71,3440.88,3105.04,3523.53,599.78,615.27,1.68,0000 0000 0000 0000 000000
2016-01-30 00:54:48,0.16,0.34,0.00,12.36,17.02,20.75,15.24,50.23,1012.21,2075.60,3437.06,3102.07,3520.15,600.19,615.77,1.73,0000 0000 0000 0000 000000
2016-01-30 00:59:49,0.22,0.35,0.00,12.33,16.99,20.75,15.06,50.11,1012.21,2075.65,3432.93,3098.79,3516.63,600.16,615.74,1.78,0000 0000 0000 0000 000000
2016-01-30 01:04:51,0.20,0.36,0.00,12.31,16.99,20.74,15.17,50.28,1012.20,2075.70,3428.83,3095.53,3513.08,600.05,615.72,1.83,0000 0000 0000 0000 000000
2016-01-30 01:09:52,0.21,0.37,0.00,12.30,16.98,20.68,15.17,50.45,1012.03,2075.88,3424.88,3092.35,3509.68,600.08,615.66,1.88,0000 0000 0000 0000 000000
2016-01-30 01:14:53,0.21,0.38,0.00,12.31,16.97,20.71,15.17,50.46,1011.79,2075.87,3420.69,3088.85,3505.92,600.10,615.50,1.93,0000 0000 0000 0000 000000
2016-01-30 01:19:54,0.20,0.39,0.00,12.30,16.96,20.70,15.07,50.26,1012.13,2075.91,3416.62,3085.69,3502.33,599.90,615.54,1.98,0000 0000 0000 0000 000000
2016-01-30 01:24:56,0.19,0.40,0.00,12.29,16.94,20.67,15.15,50.28,1012.22,2075.94,3412.47,3082.57,3498.83,599.90,615.63,2.03,0000 0000 0000 0000 000000
2016-01-30 01:29:57,0.22,0.41,0.00,12.24,16.93,20.67,15.07,50.48,1011.98,2075.97,3408.21,3079.22,3495.06,599.71,615.43,2.08,0000 0000 0000 0000 000000
2016-01-30 01:34:59,0.22,0.42,0.00,12.23,16.92,20.68,15.17,50.53,1012.11,2075.97,3403.92,3075.81,3491.13,600.29,616.06,2.13,0000 0000 0000 0000 000000
2016-01-30 01:40:00,0.22,0.43,0.00,12.20,16.90,20.62,15.21,50.48,1011.98,2075.98,3399.45,3072.20,3486.93,599.86,615.57,2.18,0000 0000 0000 0000 000000
2016-01-30 01:45:01,0.22,0.44,0.00,12.19,16.89,20.64,15.10,50.39,1012.01,2075.99,3395.13,3068.72,3482.93,600.06,615.86,2.23,0000 0000 0000 0000 000000
2016-01-30 01:50:02,0.21,0.45,0.00,12.16,16.87,20.62,15.19,50.42,1012.19,2075.99,3391.04,3065.21,3478.94,599.98,615.97,2.28,0000 0000 0000 0000 000000
2016-01-30 01:55:04,0.20,0.46,0.00,12.14,16.86,20.57,15.12,50.42,1012.08,2075.99,3387.13,3062.08,3475.33,599.91,615.92,2.33,0000 0000 0000 0000 000000
2016-01-30 02:00:05,0.18,0.47,0.00,12.14,16.84,20.58,15.23,50.35,1012.01,2075.99,3383.20,3059.10,3471.95,600.34,616.32,2.38,0000 0000 0000 0000 000000
2016-01-30 02:05:06,0.20,0.48,0.00,12.12,16.82,20.54,15.19,50.47,1012.02,2075.99,3379.07,3056.02,3468.58,599.93,615.91,2.43,0000 0000 0000 0000 000000
2016-01-30 02:10:08,0.21,0.49,0.00,12.11,16.82,20.56,15.12,50.52,1011.86,2076.00,3374.87,3052.81,3464.84,600.22,615.91,2.48,0000 0000 0000 0000 000000
2016-01-30 02:15:09,0.21,0.50,0.00,12.07,16.79,20.52,15.21,50.42,1011.96,2076.00,3370.76,3049.56,3461.19,600.13,616.19,2.53,0000 0000 0000 0000 000000
2016-01-30 02:20:11,0.20,0.51,0.00,12.06,16.79,20.51,15.07,50.45,1011.87,2076.00,3366.54,3046.51,3457.75,599.89,615.90,2.58,0000 0000 0000 0000 000000
2016-01-30 02:25:12,0.22,0.52,0.00,12.04,16.77,20.49,15.20,50.43,1011.95,2076.01,3362.20,3043.11,3453.97,600.15,616.32,2.63,0000 0000 0000 0000 000000
2016-01-30 02:30:13,0.20,0.54,0.00,12.01,16.76,20.45,15.09,50.50,1011.88,2076.03,3358.06,3039.91,3450.34,599.93,616.03,2.68,0000 0000 0000 0000 000000
2016-01-30 02:35:15,0.20,0.55,0.00,12.02,16.74,20.45,15.16,50.42,1012.00,2076.02,3353.86,3036.68,3446.71,599.85,616.05,2.73,0000 0000 0000 0000 000000
2016-01-30 02:40:16,0.23,0.56,0.00,12.00,16.73,20.45,15.09,50.25,1011.81,2076.04,3349.47,3033.27,3442.82,599.92,616.01,2.78,0000 0000 0000 0000 000000
2016-01-30 02:45:17,0.20,0.57,0.00,12.00,16.72,20.43,15.18,50.36,1012.08,2076.04,3345.37,3030.03,3439.17,600.16,616.39,2.83,0000 0000 0000 0000 000000
2016-01-30 02:50:18,0.21,0.58,0.00,12.01,16.69,20.38,15.13,50.22,1012.22,2076.10,3341.24,3026.87,3435.66,600.12,616.54,2.88,0000 0000 0000 0000 000000
2016-01-30 02:55:20,0.21,0.59,0.00,11.99,16.69,20.39,15.12,50.26,1012.22,2076.13,3336.88,3023.64,3432.05,600.13,616.48,2.93,0000 0000 0000 0000 000000
2016-01-30 03:00:21,0.26,0.60,0.00,11.98,16.67,20.38,15.15,50.55,1012.22,2076.27,3332.40,3019.99,3428.04,600.11,616.47,2.98,0000 0000 0000 0000 000000
2016-01-30 03:05:22,0.22,0.61,0.00,11.97,16.66,20.39,15.14,50.38,1012.21,2076.56,3328.28,3016.68,3424.27,600.15,616.54,3.03,0000 0000 0000 0000 000000
2016-01-30 03:10:24,0.20,0.63,0.00,11.95,16.64,20.38,15.15,50.28,1012.22,2076.56,3324.17,3013.39,3420.45,600.09,616.57,3.08,0000 0000 0000 0000 000000
2016-01-30 03:15:25,0.22,0.64,0.00,11.96,16.62,20.36,15.23,50.31,1012.22,2076.79,3320.13,3010.25,3416.96,600.23,616.81,3.13,0000 0000 0000 0000 000000
2016-01-30 03:20:26,0.21,0.65,0.00,11.94,16.62,20.32,15.17,50.52,1012.22,2076.89,3315.95,3007.34,3413.50,600.09,616.55,3.18,0000 0000 0000 0000 000000
2016-01-30 03:25:27,0.21,0.66,0.00,11.93,16.59,20.32,15.20,50.62,1012.09,2076.94,3311.75,3004.16,3409.80,600.22,616.62,3.23,0000 0000 0000 0000 000000
2016-01-30 03:30:29,0.21,0.67,0.00,11.93,16.59,20.31,15.28,50.58,1011.93,2076.97,3307.66,3000.99,3406.14,600.10,616.26,3.28,0000 0000 0000 0000 000000
2016-01-30 03:35:30,0.21,0.68,0.00,11.92,16.57,20.31,15.22,50.46,1011.99,2076.98,3303.44,2997.74,3402.50,600.17,616.51,3.33,0000 0000 0000 0000 000000
2016-01-30 03:40:31,0.20,0.69,0.00,11.89,16.56,20.26,15.17,50.34,1012.22,2076.97,3299.41,2994.68,3399.09,600.06,616.65,3.38,0000 0000 0000 0000 000000
2016-01-30 03:45:33,0.19,0.70,0.00,11.89,16.54,20.29,15.17,50.28,1012.15,2076.98,3295.50,2991.80,3395.83,600.18,616.74,3.43,0000 0000 0000 0000 000000
2016-01-30 03:50:34,0.19,0.71,0.00,11.89,16.53,20.24,15.06,50.26,1011.95,2076.99,3291.55,2988.84,3392.50,599.69,616.15,3.48,0000 0000 0000 0000 000000
2016-01-30 03:55:35,0.20,0.72,0.00,11.86,16.52,20.23,15.22,50.28,1011.86,2076.99,3287.47,2985.76,3389.20,600.06,616.48,3.53,0000 0000 0000 0000 000000
2016-01-30 04:00:36,0.20,0.73,0.00,11.85,16.50,20.22,15.25,50.18,1011.94,2076.99,3283.49,2982.70,3385.84,600.18,616.70,3.58,0000 0000 0000 0000 000000
2016-01-30 04:05:37,0.19,0.74,0.00,11.87,16.49,20.24,15.25,50.16,1012.17,2076.99,3279.63,2979.81,3382.57,600.38,617.00,3.64,0000 0000 0000 0000 000000
2016-01-30 04:10:39,0.19,0.75,0.00,11.85,16.48,20.22,15.16,50.19,1012.12,2076.99,3275.77,2976.95,3379.33,599.98,616.54,3.69,0000 0000 0000 0000 000000
2016-01-30 04:15:40,0.19,0.76,0.00,11.84,16.47,20.17,15.13,50.16,1012.05,2077.01,3271.91,2974.01,3376.09,599.79,616.48,3.74,0000 0000 0000 0000 000000
2016-01-30 04:20:41,0.20,0.77,0.00,11.86,16.44,20.20,15.22,50.15,1011.98,2077.00,3267.95,2971.06,3372.79,600.07,616.59,3.79,0000 0000 0000 0000 000000
2016-01-30 04:25:43,0.19,0.78,0.00,11.89,16.44,20.16,15.11,50.03,1012.05,2077.01,3264.09,2968.20,3369.54,599.90,616.45,3.84,0000 0000 0000 0000 000000
2016-01-30 04:30:44,0.19,0.79,0.00,11.89,16.42,20.17,15.10,50.13,1012.03,2077.01,3260.42,2965.33,3366.30,599.98,616.46,3.89,0000 0000 0000 0000 000000
2016-01-30 04:35:46,0.19,0.80,0.00,11.90,16.42,20.14,15.09,50.00,1012.15,2077.02,3256.61,2962.42,3363.06,599.88,616.41,3.94,0000 0000 0000 0000 000000
2016-01-30 04:40:47,0.20,0.81,0.00,11.89,16.41,20.16,15.21,50.06,1011.96,2077.01,3252.70,2959.49,3359.78,600.28,616.70,3.99,0000 0000 0000 0000 000000
2016-01-30 04:45:48,0.19,0.82,0.00,11.89,16.39,20.09,15.15,50.01,1011.90,2077.03,3248.89,2956.64,3356.54,600.00,616.37,4.04,0000 0000 0000 0000 000000
2016-01-30 04:50:50,0.19,0.83,0.00,11.90,16.39,20.13,15.07,50.19,1011.90,2077.04,3245.09,2953.77,3353.31,600.00,616.37,4.09,0000 0000 0000 0000 000000
2016-01-30 04:55:51,0.20,0.84,0.00,11.93,16.39,20.12,14.94,50.08,1012.13,2077.07,3241.27,2950.89,3350.00,599.70,616.14,4.14,0000 0000 0000 0000 000000
2016-01-30 05:00:52,0.20,0.85,0.00,11.95,16.38,20.16,15.20,50.02,1012.14,2077.08,3237.41,2947.97,3346.73,600.01,616.42,4.19,0000 0000 0000 0000 000000
2016-01-30 05:05:53,0.20,0.86,0.00,11.97,16.37,20.17,15.18,50.13,1011.97,2077.09,3233.53,2945.02,3343.44,599.95,616.26,4.24,0000 0000 0000 0000 000000
2016-01-30 05:10:55,0.19,0.87,0.00,11.98,16.37,20.20,15.10,50.14,1011.86,2077.08,3229.56,2942.11,3340.08,600.06,616.33,4.29,0000 0000 0000 0000 000000
2016-01-30 05:15:57,0.20,0.88,0.00,11.97,16.37,20.20,15.10,50.09,1011.77,2077.06,3225.72,2939.15,3336.73,599.98,616.12,4.34,0000 0000 0000 0000 000000
2016-01-30 05:20:58,0.21,0.89,0.00,11.96,16.37,20.22,15.21,50.29,1011.73,2077.06,3221.70,2936.06,3333.23,599.81,615.90,4.39,0000 0000 0000 0000 000000
2016-01-30 05:25:59,0.20,0.90,0.00,11.94,16.37,20.22,15.08,50.02,1011.73,2077.06,3217.77,2933.01,3329.79,599.68,615.87,4.44,0000 0000 0000 0000 000000
2016-01-30 05:31:01,0.19,0.91,0.00,11.93,16.37,20.24,15.18,50.07,1011.74,2077.03,3213.91,2930.08,3326.51,599.88,616.09,4.49,0000 0000 0000 0000 000000
2016-01-30 05:36:02,0.19,0.92,0.00,11.94,16.37,20.23,15.18,50.08,1011.73,2077.05,3210.12,2927.28,3323.36,600.13,616.31,4.54,0000 0000 0000 0000 000000
2016-01-30 05:41:03,0.20,0.93,0.00,11.97,16.37,20.21,15.09,50.13,1011.80,2077.05,3206.30,2924.45,3320.12,600.05,616.29,4.59,0000 0000 0000 0000 000000
2016-01-30 05:46:04,0.20,0.94,0.00,11.98,16.37,20.20,15.13,50.14,1011.98,2077.04,3202.48,2921.50,3316.82,600.35,616.61,4.64,0000 0000 0000 0000 000000
2016-01-30 05:51:05,0.20,0.95,0.00,12.00,16.37,20.21,15.13,50.04,1011.99,2077.03,3198.63,2918.57,3313.49,599.98,616.19,4.69,0000 0000 0000 0000 000000
2016-01-30 05:56:07,0.19,0.96,0.00,12.00,16.37,20.20,15.21,49.95,1012.06,2077.05,3194.84,2915.64,3310.28,600.36,616.58,4.74,0000 0000 0000 0000 000000
2016-01-30 06:01:08,0.20,0.97,0.00,12.02,16.37,20.18,15.16,50.00,1012.11,2077.05,3191.04,2912.67,3306.91,600.20,616.46,4.79,0000 0000 0000 0000 000000
2016-01-30 06:06:09,0.20,0.98,0.00,12.04,16.37,20.19,15.11,49.97,1012.07,2077.08,3187.23,2909.70,3303.62,599.97,616.02,4.84,0000 0000 0000 0000 000000
2016-01-30 06:11:11,0.20,0.99,0.00,12.07,16.37,20.23,15.18,49.89,1012.13,2077.05,3183.32,2906.73,3300.28,600.23,616.40,4.89,0000 0000 0000 0000 000000
2016-01-30 06:16:12,0.21,1.00,0.00,12.04,16.37,20.26,15.15,49.98,1012.12,2077.05,3179.40,2903.72,3296.97,600.18,616.33,4.94,0000 0000 0000 0000 000000
2016-01-30 06:21:14,0.20,1.01,0.00,12.06,16.37,20.28,15.18,50.02,1012.06,2077.07,3175.57,2900.77,3293.65,600.18,616.29,4.99,0000 0000 0000 0000 000000
2016-01-30 06:26:15,0.19,1.02,0.00,12.09,16.39,20.30,15.06,49.93,1011.85,2077.05,3171.86,2897.97,3290.46,599.95,615.87,5.04,0000 0000 0000 0000 000000
2016-01-30 06:31:16,0.21,1.03,0.00,12.12,16.39,20.32,15.03,49.98,1011.74,2077.03,3167.96,2894.99,3287.10,599.88,615.55,5.09,0000 0000 0000 0000 000000
2016-01-30 06:36:17,0.21,1.05,0.00,12.13,16.39,20.32,15.16,50.02,1011.73,2077.02,3163.95,2891.94,3283.69,599.94,615.72,5.14,0000 0000 0000 0000 000000
2016-01-30 06:41:19,0.23,1.06,0.00,12.11,16.40,20.35,15.13,49.93,1011.71,2077.03,3159.78,2888.65,3279.95,600.10,615.78,5.19,0000 0000 0000 0000 000000
2016-01-30 06:46:20,0.22,1.07,0.00,12.16,16.41,20.33,15.13,49.94,1011.72,2077.08,3155.79,2885.44,3276.34,600.06,615.89,5.24,0000 0000 0000 0000 000000
2016-01-30 06:51:21,0.21,1.08,0.00,12.20,16.42,20.39,15.07,50.21,1011.72,2077.02,3151.74,2882.40,3272.81,599.86,615.52,5.29,0000 0000 0000 0000 000000
2016-01-30 06:56:22,0.21,1.09,0.00,12.19,16.43,20.37,15.08,50.09,1011.72,2077.01,3147.90,2879.51,3269.36,599.75,615.43,5.34,0000 0000 0000 0000 000000
2016-01-30 07:01:24,0.21,1.10,0.00,12.18,16.44,20.37,15.12,50.05,1011.73,2077.01,3144.01,2876.56,3265.94,599.80,615.48,5.39,0000 0000 0000 0000 000000
2016-01-30 07:06:25,0.20,1.11,0.00,12.18,16.44,20.40,15.17,50.13,1011.73,2077.00,3140.20,2873.63,3262.78,600.19,615.83,5.44,0000 0000 0000 0000 000000
2016-01-30 07:11:26,0.20,1.12,0.00,12.21,16.44,20.40,15.04,49.98,1011.66,2077.00,3136.37,2870.69,3259.52,599.68,615.26,5.49,0000 0000 0000 0000 000000
2016-01-30 07:16:27,0.22,1.13,0.00,12.22,16.46,20.42,15.15,50.17,1011.41,2077.00,3132.56,2867.68,3256.11,599.88,615.35,5.54,0000 0000 0000 0000 000000
2016-01-30 07:21:28,0.25,1.14,0.00,12.23,16.47,20.44,15.12,50.23,1011.50,2077.00,3128.20,2864.11,3252.14,599.82,615.23,5.59,0000 0000 0000 0000 000000
2016-01-30 07:26:29,0.23,1.16,0.00,12.19,16.47,20.44,15.15,50.17,1011.37,2077.00,3123.94,2860.63,3248.22,600.01,615.43,5.64,0000 0000 0000 0000 000000
2016-01-30 07:31:31,0.22,1.17,0.00,12.17,16.48,20.45,15.11,50.13,1011.43,2077.00,3119.89,2857.50,3244.71,600.06,615.60,5.69,0000 0000 0000 0000 000000
2016-01-30 07:36:32,0.22,1.18,0.00,12.21,16.49,20.44,15.19,50.05,1011.62,2077.00,3115.91,2854.37,3241.20,600.22,615.86,5.74,0000 0000 0000 0000 000000
2016-01-30 07:41:33,0.20,1.19,0.00,12.22,16.49,20.41,15.07,50.05,1011.73,2077.00,3112.20,2851.54,3237.93,599.87,615.58,5.79,0000 0000 0000 0000 000000
2016-01-30 07:46:34,0.21,1.20,0.00,12.22,16.49,20.42,15.14,50.09,1011.71,2076.99,3108.28,2848.48,3234.53,599.90,615.49,5.84,0000 0000 0000 0000 000000
2016-01-30 07:51:36,0.21,1.21,0.00,12.23,16.51,20.43,15.05,49.95,1011.43,2076.99,3104.43,2845.54,3231.26,599.86,615.23,5.89,0000 0000 0000 0000 000000
2016-01-30 07:56:38,0.21,1.22,0.00,12.23,16.52,20.49,15.16,50.02,1011.27,2076.98,3100.53,2842.59,3227.91,600.13,615.45,5.95,0000 0000 0000 0000 000000
2016-01-30 08:01:39,0.23,1.23,0.00,12.26,16.52,20.46,15.06,50.46,1011.23,2076.98,3096.33,2839.40,3224.22,599.90,615.02,6.00,0000 0000 0000 0000 000000
2016-01-30 08:06:40,0.22,1.25,0.00,12.26,16.54,20.49,15.21,50.51,1011.20,2076.95,3092.17,2836.22,3220.61,600.16,615.40,6.05,0000 0000 0000 0000 000000
2016-01-30 08:11:41,0.21,1.26,0.00,12.28,16.54,20.50,15.10,50.51,1011.21,2076.96,3088.35,2833.11,3217.15,599.96,615.09,6.10,0000 0000 0000 0000 000000
2016-01-30 08:16:43,0.22,1.27,0.00,12.29,16.54,20.50,15.13,50.23,1011.24,2076.92,3084.55,2830.06,3213.75,600.11,615.20,6.15,0000 0000 0000 0000 000000
2016-01-30 08:21:44,0.19,1.28,0.00,12.26,16.56,20.51,15.19,50.08,1011.45,2076.88,3080.80,2827.16,3210.47,600.46,615.78,6.20,0000 0000 0000 0000 000000
2016-01-30 08:26:45,0.20,1.29,0.00,12.26,16.57,20.50,15.10,50.06,1011.67,2076.75,3077.05,2824.29,3207.25,600.02,615.47,6.25,0000 0000 0000 0000 000000
2016-01-30 08:31:47,0.18,1.30,0.00,12.28,16.57,20.53,15.09,49.93,1011.71,2076.53,3073.29,2821.49,3204.06,600.12,615.57,6.30,0000 0000 0000 0000 000000
2016-01-30 08:36:48,0.16,1.31,0.00,12.29,16.59,20.55,15.10,49.98,1011.72,2076.18,3069.65,2818.63,3200.87,599.93,615.32,6.35,0000 0000 0000 0000 000000
2016-01-30 08:41:49,0.23,1.32,0.00,12.32,16.59,20.57,15.10,50.10,1011.39,2076.23,3065.80,2815.82,3197.70,600.23,615.28,6.40,0000 0000 0000 0000 000000
2016-01-30 08:46:50,0.19,1.33,0.00,12.30,16.59,20.53,15.12,50.19,1011.25,2076.22,3062.03,2812.92,3194.42,599.85,614.90,6.45,0000 0000 0000 0000 000000
2016-01-30 08:51:51,0.23,1.34,0.00,12.29,16.61,20.52,15.01,50.13,1011.25,2076.09,3057.93,2809.71,3190.80,599.77,614.90,6.50,0000 0000 0000 0000 000000
2016-01-30 08:56:53,0.21,1.35,0.00,12.31,16.62,20.53,15.11,50.36,1011.24,2076.07,3054.09,2806.82,3187.47,599.91,614.90,6.55,0000 0000 0000 0000 000000
2016-01-30 09:01:54,0.22,1.36,0.00,12.32,16.62,20.55,15.08,50.42,1011.24,2076.11,3050.28,2804.03,3184.19,600.06,615.07,6.60,0000 0000 0000 0000 000000
2016-01-30 09:06:55,0.20,1.37,0.00,12.36,16.63,20.55,15.11,50.23,1011.25,2076.08,3046.46,2801.21,3180.89,599.72,614.71,6.65,0000 0000 0000 0000 000000
2016-01-30 09:11:57,0.21,1.38,0.00,12.34,16.64,20.59,15.14,50.13,1011.31,2076.02,3042.65,2798.22,3177.60,600.15,615.17,6.70,0000 0000 0000 0000 000000
2016-01-30 09:16:58,0.20,1.39,0.00,12.33,16.64,20.61,15.11,50.11,1011.56,2076.02,3038.96,2795.45,3174.40,599.87,615.14,6.75,0000 0000 0000 0000 000000
2016-01-30 09:21:59,0.21,1.40,0.00,12.37,16.66,20.59,15.11,49.95,1011.44,2076.02,3035.19,2792.67,3171.23,599.85,614.86,6.80,0000 0000 0000 0000 000000
2016-01-30 09:27:01,0.21,1.41,0.00,12.37,16.67,20.62,15.07,50.21,1011.33,2076.00,3031.44,2789.87,3168.07,599.70,614.67,6.85,0000 0000 0000 0000 000000
2016-01-30 09:32:02,0.21,1.42,0.00,12.37,16.67,20.63,15.08,50.33,1011.25,2076.00,3027.64,2786.94,3164.86,600.22,615.24,6.90,0000 0000 0000 0000 000000
2016-01-30 09:37:03,0.22,1.43,0.00,12.39,16.68,20.67,15.09,50.39,1011.23,2076.00,3023.79,2784.02,3161.50,599.88,614.93,6.95,0000 0000 0000 0000 000000
2016-01-30 09:42:05,0.21,1.45,0.00,12.39,16.69,20.62,15.14,50.24,1011.24,2076.00,3019.93,2781.04,3158.12,600.08,614.91,7.00,0000 0000 0000 0000 000000
2016-01-30 09:47:06,0.22,1.46,0.00,12.42,16.69,20.62,15.13,50.23,1011.24,2076.00,3016.04,2778.13,3154.86,600.03,614.88,7.05,0000 0000 0000 0000 000000
2016-01-30 09:52:07,0.22,1.47,0.00,12.43,16.72,20.59,15.18,50.10,1011.26,2075.99,3012.11,2775.19,3151.54,600.09,614.83,7.10,0000 0000 0000 0000 000000
2016-01-30 09:57:09,0.19,1.48,0.00,12.43,16.72,20.62,15.05,50.07,1011.28,2075.99,3008.52,2772.43,3148.37,600.00,614.86,7.15,0000 0000 0000 0000 000000
2016-01-30 10:02:10,0.21,1.49,0.00,12.43,16.73,20.64,15.15,50.09,1011.31,2075.98,3005.04,2769.67,3145.21,599.99,614.92,7.20,0000 0000 0000 0000 000000
2016-01-30 10:07:11,0.21,1.50,0.00,12.48,16.74,20.71,15.24,50.18,1011.26,2075.99,3001.37,2766.93,3142.10,600.08,614.83,7.25,0000 0000 0000 0000 000000
2016-01-30 10:12:13,0.20,1.51,0.00,12.48,16.75,20.68,15.12,50.04,1011.33,2075.97,2997.72,2764.15,3138.95,600.14,614.85,7.30,0000 0000 0000 0000 000000
2016-01-30 10:17:14,0.20,1.52,0.00,12.49,16.77,20.69,15.16,50.08,1011.27,2075.98,2994.06,2761.40,3135.94,600.48,615.20,7.35,0000 0000 0000 0000 000000
2016-01-30 10:22:15,0.20,1.53,0.00,12.51,16.78,20.72,15.08,50.16,1011.24,2075.96,2990.35,2758.60,3132.93,599.63,614.24,7.40,0000 0000 0000 0000 000000
2016-01-30 10:27:16,0.21,1.54,0.00,12.53,16.79,20.70,15.05,50.17,1011.06,2075.95,2986.67,2755.79,3129.75,600.08,614.60,7.45,0000 0000 0000 0000 000000
2016-01-30 10:32:17,0.21,1.55,0.00,12.56,16.81,20.71,15.17,50.34,1010.95,2075.85,2982.92,2752.92,3126.48,600.31,614.79,7.50,0000 0000 0000 0000 000000
2016-01-30 10:37:18,0.17,1.56,0.00,12.55,16.82,20.72,15.05,50.21,1011.04,2075.56,2979.15,2750.20,3123.18,599.99,614.41,7.55,0000 0000 0000 0000 000000
2016-01-30 10:42:19,0.19,1.57,0.00,12.57,16.84,20.76,15.09,50.19,1010.88,2075.32,2975.42,2747.40,3119.98,599.89,614.15,7.60,0000 0000 0000 0000 000000
2016-01-30 10:47:21,0.19,1.58,0.00,12.58,16.85,20.78,15.01,50.11,1011.04,2075.14,2971.73,2744.74,3116.79,599.81,614.15,7.65,0000 0000 0000 0000 000000
2016-01-30 10:52:22,0.21,1.59,0.00,12.60,16.87,20.80,15.13,50.09,1011.21,2075.04,2968.02,2741.88,3113.51,599.98,614.36,7.70,0000 0000 0000 0000 000000
2016-01-30 10:57:23,0.21,1.60,0.00,12.62,16.88,20.81,15.10,50.09,1011.04,2075.01,2964.41,2739.01,3110.37,600.02,614.35,7.75,0000 0000 0000 0000 000000
2016-01-30 11:02:25,0.21,1.61,0.00,12.63,16.89,20.81,15.06,50.17,1010.99,2075.02,2960.80,2736.31,3107.26,599.98,614.19,7.80,0000 0000 0000 0000 000000
2016-01-30 11:07:26,0.22,1.63,0.00,12.61,16.89,20.81,15.03,50.13,1010.81,2075.01,2957.07,2733.48,3104.06,599.98,614.15,7.85,0000 0000 0000 0000 000000
2016-01-30 11:12:28,0.22,1.64,0.00,12.63,16.92,20.80,15.07,50.35,1010.77,2075.00,2953.30,2730.64,3100.82,599.74,613.77,7.90,0000 0000 0000 0000 000000
2016-01-30 11:17:29,0.22,1.65,0.00,12.66,16.92,20.79,15.07,50.46,1010.76,2075.00,2949.59,2727.81,3097.56,599.88,613.92,7.95,0000 0000 0000 0000 000000
2016-01-30 11:22:30,0.22,1.66,0.00,12.67,16.94,20.85,15.05,50.49,1010.76,2075.00,2945.88,2724.97,3094.32,599.73,613.74,8.00,0000 0000 0000 0000 000000
2016-01-30 11:27:31,0.21,1.67,0.00,12.68,16.94,20.88,15.05,50.42,1010.76,2075.00,2942.15,2722.12,3091.04,599.93,613.93,8.05,0000 0000 0000 0000 000000
2016-01-30 11:32:33,0.21,1.68,0.00,12.68,16.96,20.87,15.01,50.17,1010.76,2075.00,2938.54,2719.39,3087.88,599.80,613.92,8.10,0000 0000 0000 0000 000000
2016-01-30 11:37:34,0.21,1.69,0.00,12.67,16.97,20.89,15.02,50.35,1010.73,2075.00,2934.88,2716.57,3084.80,599.69,613.79,8.15,0000 0000 0000 0000 000000
2016-01-30 11:42:35,0.21,1.70,0.00,12.68,16.97,20.92,15.10,50.39,1010.60,2074.98,2931.11,2713.73,3081.55,600.16,614.06,8.20,0000 0000 0000 0000 000000
2016-01-30 11:47:36,0.21,1.71,0.00,12.64,16.99,20.92,15.07,50.25,1010.74,2074.98,2927.46,2710.95,3078.30,599.86,613.97,8.26,0000 0000 0000 0000 000000
2016-01-30 11:52:38,0.22,1.72,0.00,12.66,16.99,20.89,15.13,50.22,1010.75,2074.98,2923.77,2708.05,3075.04,600.43,614.41,8.31,0000 0000 0000 0000 000000
2016-01-30 11:57:39,0.21,1.74,0.00,12.67,17.00,20.91,15.10,50.23,1010.74,2074.92,2919.98,2705.12,3071.76,599.97,613.92,8.36,0000 0000 0000 0000 000000
2016-01-30 12:02:41,0.21,1.75,0.00,12.68,17.02,20.91,15.10,50.17,1010.73,2074.91,2916.38,2702.42,3068.79,600.06,614.04,8.41,0000 0000 0000 0000 000000
2016-01-30 12:07:42,0.21,1.76,0.00,12.68,17.02,20.90,15.07,50.17,1010.69,2074.89,2912.74,2699.63,3065.64,599.83,613.80,8.46,0000 0000 0000 0000 000000
2016-01-30 12:12:43,0.21,1.77,0.00,12.70,17.04,20.89,14.97,50.04,1010.73,2074.83,2909.03,2696.91,3062.59,599.97,613.94,8.51,0000 0000 0000 0000 000000
2016-01-30 12:17:45,0.18,1.78,0.00,12.71,17.04,20.94,15.06,50.15,1010.71,2074.56,2905.37,2694.13,3059.47,600.12,613.94,8.56,0000 0000 0000 0000 000000
2016-01-30 12:22:46,0.21,1.79,0.00,12.71,17.06,20.95,15.08,50.21,1010.48,2074.41,2901.78,2691.33,3056.37,600.01,613.76,8.61,0000 0000 0000 0000 000000
2016-01-30 12:27:47,0.19,1.80,0.00,12.72,17.07,20.98,15.02,50.17,1010.54,2074.19,2898.15,2688.56,3053.21,599.88,613.59,8.66,0000 0000 0000 0000 000000
2016-01-30 12:32:49,0.20,1.81,0.00,12.74,17.08,20.98,15.04,50.21,1010.35,2074.10,2894.53,2685.88,3050.06,599.92,613.53,8.71,0000 0000 0000 0000 000000
2016-01-30 12:37:50,0.22,1.82,0.00,12.77,17.09,21.00,15.07,50.14,1010.33,2074.06,2890.88,2683.12,3046.92,599.94,613.49,8.76,0000 0000 0000 0000 000000
2016-01-30 12:42:52,0.21,1.83,0.00,12.77,17.09,21.00,15.04,50.14,1010.28,2074.05,2887.30,2680.41,3043.84,599.90,613.41,8.81,0000 0000 0000 0000 000000
2016-01-30 12:47:53,0.21,1.84,0.00,12.76,17.11,21.01,15.07,50.21,1010.27,2074.03,2883.68,2677.62,3040.73,600.10,613.61,8.86,0000 0000 0000 0000 000000
2016-01-30 12:52:54,0.22,1.85,0.00,12.74,17.12,21.04,15.04,50.20,1010.27,2074.01,2880.04,2674.86,3037.53,599.83,613.39,8.91,0000 0000 0000 0000 000000
2016-01-30 12:57:55,0.22,1.86,0.00,12.77,17.13,20.99,15.08,50.22,1010.21,2074.00,2876.45,2672.04,3034.30,600.01,613.49,8.96,0000 0000 0000 0000 000000
2016-01-30 13:02:57,0.22,1.87,0.00,12.78,17.14,21.04,15.00,50.13,1009.95,2074.00,2872.85,2669.28,3031.26,599.98,613.27,9.01,0000 0000 0000 0000 000000